Location: Bottens
(46.6171°N, 6.6605°E)
Time: 19:56:20
(UTC+00:00)

USA 308 - Pass Details

Date: 20 June 2021
Orbit: 566 x 576 km, 54.0° (Epoch: 13 July)

Event Time Altitude Azimuth Distance (km) Brightness Sun altitude
Exits shadow 00:51:58 31° 156° (SSE) 1,005 3.7 -17.8°
Maximum altitude 00:52:41 33° 136° (SE) 961 3.8 -17.8°
Drops below altitude 10° 00:56:29 10° 71° (ENE) 1,864 6.0 -17.6°
Sets 00:58:53 0° 62° (ENE) 2,765 7.2 -17.4°
